Regional Weather Roundup
Issued by NWS

Home | Current Version | Previous Version | Graphics & Text | Print | Product List | Glossary On
Versions: 1 2 3 4 5 6 7 8 9 10 11 12 13 14 15 16 17 18 19 20 21 22 23 24 25 26 27 28
000
ASUS45 KCYS 240010
RWRWY

WYOMING REGIONAL WEATHER ROUNDUP
NATIONAL WEATHER SERVICE CHEYENNE WY
600 PM MDT THU MAR 23 2017

NOTE:  "FAIR" INDICATES FEW OR NO CLOUDS BELOW 12,000 FEET
WITH NO SIGNIFICANT WEATHER AND/OR OBSTRUCTIONS TO VISIBILITY.

WYZ001-240100-
YELLOWSTONE NATIONAL PARK

CITY           SKY/WX    TMP DP  RH WIND       PRES   REMARKS
LK YELLOWSTONE   N/A     40  20  44 NW9       29.93R WCI  34
6HR MIN TEMP:  36; 6HR MAX TEMP:  41;

W YELLOWSTONE  NOT AVBL

$$
WYZ002>013-054>058-071-098>099-240100-
NORTHERN WYOMING

CITY           SKY/WX    TMP DP  RH WIND       PRES   REMARKS
JACKSON        PTSUNNY   43  27  52 E9        29.89R
CODY           FAIR      44  33  65 SW10      29.92R
GREYBULL       CLOUDY    50  33  52 NW10      29.85R
6HR MIN TEMP:  46; 6HR MAX TEMP:  50; 6HR PCP: TRACE;

WORLAND        CLOUDY    45  39  79 NE6       29.87R
6HR MIN TEMP:  43; 6HR MAX TEMP:  45; 6HR PCP:  0.25;

SHERIDAN       CLOUDY    44  38  79 W8        29.90R
6HR MIN TEMP:  42; 6HR MAX TEMP:  45; 6HR PCP:  0.42;

BUFFALO        CLOUDY    41  36  82 N17G25    29.90R
6HR MIN TEMP:  39; 6HR MAX TEMP:  41; 6HR PCP:  0.22;

GILLETTE       CLOUDY    40  50 100 N13       29.87R WCI  32
6HR MIN TEMP:  39; 6HR MAX TEMP:  42; 6HR PCP:  0.27;

HULETT         LGT RAIN  37  36  93 NE8       29.87R WCI  31
NEWCASTLE      FAIR      52  34  50 NW24      29.74R

$$
WYZ014>020-022>026-101>103-240100-
CENTRAL WYOMING

CITY           SKY/WX    TMP DP  RH WIND       PRES   REMARKS
BIG PINEY      FLURRIES  34  33  96 N16       29.89R WCI  24
6HR MIN TEMP:  33; 6HR MAX TEMP:  36; 6HR PCP:  0.26;

PINEDALE       CLOUDY    34  32  93 W14       29.87R WCI  24
DUBOIS         LGT RAIN  34  32  93 S5        29.89R WCI  30
LANDER         LGT RAIN  37  36  96 NE10      29.89R WCI  30
6HR MIN TEMP:  35; 6HR MAX TEMP:  40; 6HR PCP:  0.33;

RIVERTON       LGT RAIN  38  35  89 N13       29.89R WCI  30
6HR MIN TEMP:  37; 6HR MAX TEMP:  40; 6HR PCP:  0.17;

CASPER         CLOUDY    41  34  76 N20       29.86R
6HR MIN TEMP:  41; 6HR MAX TEMP:  50; 6HR PCP: TRACE;

DOUGLAS        PTSUNNY   41  36  82 N17G29    29.81R
6HR MIN TEMP:  41; 6HR MAX TEMP:  61; 6HR PCP:  0.03;


$$
WYZ021-027>030-104>119-240100-
SOUTHERN WYOMING

CITY           SKY/WX    TMP DP  RH WIND       PRES   REMARKS
EVANSTON       CLOUDY    34  30  85 W7        29.92R WCI  28
6HR MIN TEMP:  33; 6HR MAX TEMP:  34; 6HR PCP: TRACE;

KEMMERER       SNOW      34  32  93 NW15      29.89R VSB 1/2 WCI  24
FORT BRIDGER   LGT SNOW  35  35 100 W15       29.92R WCI  25
ROCK SPRINGS   LGT RAIN  38  34  85 NE12      29.84R FOG     WCI  30
DIXON          LGT RAIN  46  33  59 E9        29.79R
RAWLINS        LGT RAIN  41  34  76 N15       29.81R
6HR MIN TEMP:  41; 6HR MAX TEMP:  57; 6HR PCP:  0.01;

SARATOGA       MOCLDY    45  32  61 NW17G24   29.80R
LARAMIE        FAIR      53  15  22 W15G26    29.72R
6HR MIN TEMP:  53; 6HR MAX TEMP:  61;

CHEYENNE       PTSUNNY   59  23  25 NW22G29   29.64S
6HR MIN TEMP:  58; 6HR MAX TEMP:  70;

TORRINGTON     PTSUNNY   56  46  69 N20       29.67R
6HR MIN TEMP:  55; 6HR MAX TEMP:  70; 6HR PCP:  0.02;

PINE BLUFFS    FAIR      61  30  31 N22G31    29.59S

$$




USA.gov is the U.S. government's official web portal to all federal, state and local government web resources and services.